Weather past 2 weeks in Saint-Pierre, Saint Pierre and Miquelon

Now
70 °F

Passing clouds.


Feels Like: 70 °F
Forecast: 65 / 69 °F
Wind: 20 mph from Southwest

Location: Saint-Pierre

Current Time: Aug 27, 2014 at 5:19:18 PM

Latest Report: Aug 27, 2014 at 5:00 PM


Visibility: N/A

Pressure: 29.80 "Hg

Humidity: 83%

Dew point: 64 °F

Location of Saint-PierreLocation

Historic Weather in Saint-Pierre — Graph

°F

Saint-Pierre temperature yesterday

Maximum temperature yesterday: 70 °F (at 1:00 PM)
Minimum temperature yesterday: 64 °F (at 6:00 AM)
Average temperature yesterday: 67 °F

Past Weeks' High & Low Weather Summary

 TemperatureHumidityPressure
High72 °F (Aug 17, 2:00 PM)100% (Aug 14, 7:00 AM)30.18 "Hg (Aug 14, 7:00 AM)
Low55 °F (Aug 23, 7:00 AM)60% (Aug 22, 4:00 PM)29.53 "Hg (Aug 19, 7:00 AM)
Average65 °F84%29.98 "Hg
* Reported Aug 12 3:00 PM — Aug 27 3:00 PM, Saint-Pierre, Weather by CustomWeather, © 2014

Note: Actual official high and low records may vary slightly from our data, if they occured in-between our weather recording intervals... More about our weather records

Advertising

Saint-Pierre weather history for previous 24 hours

 ConditionsComfort  
Time TempWeatherWind HumidityBarometerVisibility
3:00 PM
Aug 27
72 °FScattered clouds.18 mph83%29.83 "HgN/A
2:00 PM72 °FPartly sunny.21 mph83%29.83 "HgN/A
1:00 PM68 °FLow clouds.21 mph88%29.86 "HgN/A
12:00 PM68 °FPartly sunny.17 mph88%29.86 "HgN/A
11:00 AM70 °FPassing clouds.14 mph83%29.89 "HgN/A
10:00 AM68 °FPassing clouds.13 mph88%29.89 "HgN/A
9:00 AM66 °FSunny.13 mph94%29.92 "Hg10 mi
8:00 AM64 °FPassing clouds.16 mph94%29.92 "HgN/A
7:00 AM64 °FPassing clouds.16 mph94%29.95 "HgN/A
6:00 AM64 °FClear.16 mph94%29.95 "Hg10 mi
10:00 PM
Aug 26
64 °FPassing clouds.17 mph94%30.07 "HgN/A
9:00 PM64 °FPassing clouds.16 mph94%30.07 "HgN/A
8:00 PM66 °FScattered clouds.14 mph88%30.07 "HgN/A
7:00 PM68 °FPartly sunny.17 mph88%30.07 "HgN/A
6:00 PM68 °FPartly sunny.17 mph88%30.09 "HgN/A
5:00 PM68 °FPartly sunny.15 mph88%30.09 "HgN/A
Weather by CustomWeather, © 2014

See weather overviewHow to use our weather pages